DLH161 EDDH-EGPH

Flight info

Callsign DLH161
Flight time 1h 22m
Altitude 40000
Route ELSOB3C ELSOB L619 OSTOR DCT OMIMA DCT VALBO DCT ROPAL DCT DIGBI DCT AGPED
Aircraft A359/H-SDE2E3GHIJ3J4J5LM1ORWXY/LB1D1

Departure

Time 2026-05-06 05:07
Airport Hamburg Helmut Schmidt Airport (EDDH)

Arrival

Time 2026-05-06 06:30
Airport Edinburgh Airport (EGPH)
Time Latitude Longitude Altitude Speed Heading
2026-05-06 04:16 53.63013 10.00337 49 ft 0 kts 123°
2026-05-06 04:17 53.63010 10.00345 50 ft 0 kts 123°
2026-05-06 04:51 53.63012 10.00341 47 ft 3 kts 123°
2026-05-06 04:51 53.63026 10.00303 49 ft 4 kts 123°
2026-05-06 04:51 53.63038 10.00273 47 ft 4 kts 124°
2026-05-06 04:51 53.63055 10.00240 47 ft 4 kts 149°
2026-05-06 04:52 53.63080 10.00227 47 ft 4 kts 179°
2026-05-06 04:52 53.63099 10.00227 47 ft 0 kts 181°
2026-05-06 04:57 53.63096 10.00227 52 ft 1 kts 181°
2026-05-06 04:57 53.63078 10.00221 51 ft 5 kts 194°
2026-05-06 04:58 53.63033 10.00184 51 ft 10 kts 211°
2026-05-06 04:58 53.62961 10.00108 49 ft 15 kts 212°
2026-05-06 04:58 53.62893 10.00042 51 ft 12 kts 205°
2026-05-06 04:58 53.62804 9.99961 46 ft 17 kts 209°
2026-05-06 04:59 53.62690 9.99856 50 ft 12 kts 208°
2026-05-06 04:59 53.62638 9.99744 47 ft 14 kts 255°
2026-05-06 04:59 53.62615 9.99557 49 ft 18 kts 259°
2026-05-06 04:59 53.62588 9.99324 48 ft 22 kts 259°
2026-05-06 05:00 53.62557 9.99053 51 ft 25 kts 259°
2026-05-06 05:00 53.62535 9.98855 47 ft 24 kts 259°
2026-05-06 05:00 53.62511 9.98644 48 ft 20 kts 259°
2026-05-06 05:00 53.62483 9.98397 53 ft 22 kts 259°
2026-05-06 05:01 53.62458 9.98184 49 ft 20 kts 257°
2026-05-06 05:01 53.62378 9.97980 50 ft 23 kts 229°
2026-05-06 05:01 53.62268 9.97763 49 ft 26 kts 230°
2026-05-06 05:01 53.62145 9.97515 49 ft 29 kts 230°
2026-05-06 05:02 53.62009 9.97240 46 ft 32 kts 230°
2026-05-06 05:02 53.61907 9.97032 52 ft 17 kts 230°
2026-05-06 05:02 53.61825 9.96865 49 ft 20 kts 230°
2026-05-06 05:02 53.61733 9.96681 47 ft 12 kts 230°
2026-05-06 05:03 53.61690 9.96595 49 ft 7 kts 230°
2026-05-06 05:03 53.61668 9.96495 48 ft 11 kts 272°
2026-05-06 05:03 53.61697 9.96427 49 ft 4 kts 338°
2026-05-06 05:03 53.61698 9.96427 49 ft 0 kts 340°
2026-05-06 05:05 53.61699 9.96427 49 ft 0 kts 340°
2026-05-06 05:05 53.61705 9.96423 48 ft 2 kts 340°
2026-05-06 05:06 53.61732 9.96415 49 ft 6 kts 354°
2026-05-06 05:06 53.61792 9.96421 47 ft 11 kts
2026-05-06 05:06 53.61876 9.96472 45 ft 14 kts 42°
2026-05-06 05:06 53.61959 9.96638 43 ft 31 kts 50°
2026-05-06 05:07 53.62238 9.97202 46 ft 98 kts 50°
2026-05-06 05:07 53.62810 9.98358 50 ft 157 kts 49°
2026-05-06 05:07 53.63521 9.99823 755 ft 156 kts 52°
2026-05-06 05:07 53.64158 10.01252 1729 ft 157 kts 56°
2026-05-06 05:08 53.64875 10.02781 2236 ft 175 kts 52°
2026-05-06 05:08 53.65702 10.04394 2908 ft 187 kts 51°
2026-05-06 05:08 53.66568 10.06092 3651 ft 194 kts 51°
2026-05-06 05:08 53.67454 10.07860 4370 ft 201 kts 51°
2026-05-06 05:09 53.68394 10.09667 5093 ft 209 kts 46°
2026-05-06 05:09 53.69635 10.10998 5833 ft 218 kts 20°
2026-05-06 05:09 53.71153 10.11159 6549 ft 232 kts 351°
2026-05-06 05:09 53.72646 10.09821 6926 ft 262 kts 316°
2026-05-06 05:10 53.73494 10.06994 7501 ft 281 kts 280°
2026-05-06 05:10 53.73799 10.03742 8503 ft 279 kts 288°
2026-05-06 05:10 53.74521 10.00716 9555 ft 279 kts 291°
2026-05-06 05:10 53.74923 9.97480 10333 ft 289 kts 271°
2026-05-06 05:11 53.74534 9.94042 10739 ft 310 kts 249°
2026-05-06 05:11 53.73665 9.90559 11131 ft 332 kts 246°
2026-05-06 05:11 53.72703 9.86927 11746 ft 344 kts 246°
2026-05-06 05:11 53.71726 9.83185 12542 ft 351 kts 246°
2026-05-06 05:12 53.70743 9.79377 13361 ft 357 kts 246°
2026-05-06 05:12 53.69752 9.75509 14136 ft 361 kts 246°
2026-05-06 05:12 53.68754 9.71604 14981 ft 362 kts 246°
2026-05-06 05:12 53.67752 9.67684 15787 ft 365 kts 246°
2026-05-06 05:13 53.66875 9.63661 16570 ft 368 kts 253°
2026-05-06 05:13 53.66493 9.59357 17314 ft 374 kts 267°
2026-05-06 05:13 53.66756 9.54969 18069 ft 382 kts 281°
2026-05-06 05:13 53.67665 9.50728 18749 ft 388 kts 292°
2026-05-06 05:14 53.68890 9.46634 19430 ft 393 kts 296°
2026-05-06 05:14 53.70247 9.42598 20137 ft 398 kts 298°
2026-05-06 05:14 53.71648 9.38607 20828 ft 402 kts 298°
2026-05-06 05:14 53.73085 9.34531 21500 ft 406 kts 298°
2026-05-06 05:15 53.74523 9.30402 22222 ft 409 kts 297°
2026-05-06 05:15 53.75956 9.26225 22914 ft 413 kts 297°
2026-05-06 05:15 53.77388 9.21992 23586 ft 416 kts 296°
2026-05-06 05:15 53.78824 9.17708 24135 ft 421 kts 296°
2026-05-06 05:16 53.80268 9.13375 24668 ft 426 kts 296°
2026-05-06 05:16 53.81730 9.08983 25205 ft 430 kts 296°
2026-05-06 05:16 53.83398 9.04719 25724 ft 437 kts 304°
2026-05-06 05:16 53.85292 9.00647 26264 ft 442 kts 306°
2026-05-06 05:17 53.87260 8.96611 26785 ft 447 kts 307°
2026-05-06 05:17 53.89277 8.92577 27351 ft 451 kts 307°
2026-05-06 05:17 53.91304 8.88566 27906 ft 453 kts 307°
2026-05-06 05:17 53.93361 8.84502 28520 ft 455 kts 307°
2026-05-06 05:18 53.95424 8.80412 29082 ft 458 kts 307°
2026-05-06 05:18 53.97502 8.76268 29556 ft 462 kts 307°
2026-05-06 05:18 53.99586 8.72090 30014 ft 465 kts 307°
2026-05-06 05:18 54.01685 8.67871 30382 ft 470 kts 306°
2026-05-06 05:19 54.03804 8.63599 30745 ft 475 kts 306°
2026-05-06 05:19 54.05939 8.59286 31079 ft 479 kts 306°
2026-05-06 05:19 54.08102 8.54910 31422 ft 483 kts 306°
2026-05-06 05:19 54.10276 8.50506 31757 ft 487 kts 306°
2026-05-06 05:20 54.12465 8.46065 32102 ft 491 kts 306°
2026-05-06 05:20 54.14666 8.41593 32465 ft 493 kts 306°
2026-05-06 05:20 54.16877 8.37092 32778 ft 497 kts 305°
2026-05-06 05:20 54.19102 8.32553 33107 ft 500 kts 305°
2026-05-06 05:21 54.21338 8.27982 33420 ft 503 kts 305°
2026-05-06 05:21 54.23555 8.23445 33819 ft 503 kts 305°
2026-05-06 05:21 54.25795 8.18855 34309 ft 499 kts 305°
2026-05-06 05:21 54.28009 8.14314 34794 ft 496 kts 305°
2026-05-06 05:22 54.30212 8.09783 35240 ft 493 kts 305°
2026-05-06 05:22 54.32403 8.05266 35656 ft 491 kts 305°
2026-05-06 05:22 54.34583 8.00760 36048 ft 490 kts 305°
2026-05-06 05:22 54.36744 7.96286 36577 ft 485 kts 306°
2026-05-06 05:23 54.38884 7.91848 36981 ft 483 kts 306°
2026-05-06 05:23 54.41025 7.87397 37281 ft 483 kts 306°
2026-05-06 05:23 54.45274 7.78538 37876 ft 482 kts 306°
2026-05-06 05:24 54.47410 7.74074 38190 ft 482 kts 306°
2026-05-06 05:24 54.49532 7.69633 38499 ft 481 kts 306°
2026-05-06 05:24 54.51654 7.65182 38760 ft 480 kts 306°
2026-05-06 05:24 54.53767 7.60744 39005 ft 479 kts 306°
2026-05-06 05:25 54.55877 7.56304 39210 ft 479 kts 306°
2026-05-06 05:25 54.57986 7.51857 39402 ft 479 kts 306°
2026-05-06 05:25 54.60102 7.47386 39590 ft 479 kts 306°
2026-05-06 05:25 54.62181 7.42987 39751 ft 479 kts 306°
2026-05-06 05:26 54.64287 7.38523 39906 ft 480 kts 306°
2026-05-06 05:26 54.66400 7.34035 39943 ft 480 kts 306°
2026-05-06 05:26 54.70610 7.25072 39944 ft 480 kts 306°
2026-05-06 05:27 54.74813 7.16090 39947 ft 480 kts 306°
2026-05-06 05:27 54.79008 7.07092 39947 ft 480 kts 306°
2026-05-06 05:28 54.83192 6.98086 39950 ft 479 kts 306°
2026-05-06 05:28 54.87362 6.89078 39955 ft 478 kts 306°
2026-05-06 05:29 54.91519 6.80062 39955 ft 478 kts 306°
2026-05-06 05:29 54.95641 6.71089 39958 ft 478 kts 306°
2026-05-06 05:30 54.99159 6.61396 39965 ft 471 kts 291°
2026-05-06 05:30 55.00964 6.50531 39970 ft 466 kts 278°
2026-05-06 05:31 55.01990 6.39374 39966 ft 466 kts 276°
2026-05-06 05:31 55.02879 6.28182 39973 ft 466 kts 275°
2026-05-06 05:32 55.03753 6.16979 39967 ft 466 kts 276°
2026-05-06 05:32 55.04678 6.05766 39970 ft 466 kts 276°
2026-05-06 05:33 55.05606 5.94573 39977 ft 466 kts 276°
2026-05-06 05:33 55.06508 5.83435 39980 ft 466 kts 276°
2026-05-06 05:34 55.07402 5.72229 39976 ft 466 kts 276°
2026-05-06 05:34 55.08282 5.61012 39981 ft 466 kts 276°
2026-05-06 05:35 55.09153 5.49781 39981 ft 466 kts 276°
2026-05-06 05:35 55.10008 5.38552 39987 ft 466 kts 275°
2026-05-06 05:36 55.10854 5.27330 39990 ft 466 kts 275°
2026-05-06 05:36 55.11691 5.16100 39986 ft 466 kts 275°
2026-05-06 05:37 55.12522 5.04872 39987 ft 466 kts 275°
2026-05-06 05:37 55.12959 4.93593 39990 ft 465 kts 270°
2026-05-06 05:38 55.13126 4.82376 39978 ft 464 kts 269°
2026-05-06 05:38 55.13241 4.71069 39986 ft 464 kts 269°
2026-05-06 05:39 55.13346 4.59773 39982 ft 465 kts 269°
2026-05-06 05:39 55.13447 4.48485 39972 ft 465 kts 269°
2026-05-06 05:40 55.13540 4.37255 39988 ft 465 kts 269°
2026-05-06 05:40 55.13624 4.25965 39976 ft 465 kts 269°
2026-05-06 05:41 55.13697 4.14675 39984 ft 465 kts 269°
2026-05-06 05:41 55.13759 4.03371 39985 ft 465 kts 269°
2026-05-06 05:42 55.13817 3.92050 39995 ft 465 kts 269°
2026-05-06 05:42 55.14098 3.80752 40000 ft 465 kts 272°
2026-05-06 05:43 55.14480 3.69517 39999 ft 466 kts 271°
2026-05-06 05:43 55.14828 3.58208 39998 ft 466 kts 271°
2026-05-06 05:44 55.15136 3.46868 40001 ft 466 kts 271°
2026-05-06 05:44 55.15423 3.35537 40001 ft 466 kts 271°
2026-05-06 05:45 55.15699 3.24207 40010 ft 466 kts 271°
2026-05-06 05:45 55.15965 3.12964 40010 ft 465 kts 271°
2026-05-06 05:46 55.16221 3.01657 40019 ft 465 kts 270°
2026-05-06 05:46 55.16468 2.90350 40018 ft 465 kts 270°
2026-05-06 05:47 55.16704 2.79035 40018 ft 465 kts 270°
2026-05-06 05:47 55.16929 2.67719 40018 ft 464 kts 270°
2026-05-06 05:48 55.17108 2.58336 40024 ft 464 kts 270°
2026-05-06 05:48 55.17314 2.47035 40024 ft 464 kts 270°
2026-05-06 05:49 55.17510 2.35741 40025 ft 464 kts 270°
2026-05-06 05:49 55.17695 2.24434 40026 ft 465 kts 270°
2026-05-06 05:50 55.17869 2.13135 40033 ft 465 kts 270°
2026-05-06 05:50 55.18034 2.01824 40031 ft 465 kts 270°
2026-05-06 05:51 55.18188 1.90507 40034 ft 465 kts 270°
2026-05-06 05:51 55.18331 1.79199 40034 ft 465 kts 270°
2026-05-06 05:52 55.18463 1.67962 40039 ft 465 kts 270°
2026-05-06 05:52 55.18585 1.56639 40040 ft 466 kts 270°
2026-05-06 05:53 55.18698 1.45280 40042 ft 466 kts 270°
2026-05-06 05:53 55.18800 1.33925 40042 ft 466 kts 270°
2026-05-06 05:54 55.18891 1.22563 40045 ft 466 kts 269°
2026-05-06 05:54 55.18972 1.11212 40045 ft 466 kts 269°
2026-05-06 05:55 55.19041 0.99948 40048 ft 466 kts 269°
2026-05-06 05:55 55.19101 0.88600 40048 ft 466 kts 269°
2026-05-06 05:56 55.19150 0.77256 40053 ft 466 kts 269°
2026-05-06 05:56 55.19189 0.65909 40059 ft 466 kts 269°
2026-05-06 05:57 55.19217 0.54571 40066 ft 466 kts 269°
2026-05-06 05:57 55.19232 0.45230 40059 ft 466 kts 269°
2026-05-06 05:58 55.19241 0.33895 40061 ft 466 kts 269°
2026-05-06 05:58 55.19239 0.22547 40061 ft 466 kts 269°
2026-05-06 05:59 55.19227 0.11422 40064 ft 466 kts 269°
2026-05-06 05:59 55.19205 0.00075 40064 ft 466 kts 269°
2026-05-06 06:00 55.19172 -0.11268 40072 ft 466 kts 269°
2026-05-06 06:00 55.19129 -0.22533 40072 ft 466 kts 269°
2026-05-06 06:01 55.19075 -0.33864 40070 ft 466 kts 269°
2026-05-06 06:01 55.19010 -0.45190 40072 ft 466 kts 269°
2026-05-06 06:02 55.18935 -0.56537 40072 ft 466 kts 268°
2026-05-06 06:02 55.18850 -0.67872 39828 ft 465 kts 268°
2026-05-06 06:03 55.18803 -0.73524 39589 ft 465 kts 268°
2026-05-06 06:03 55.18754 -0.79187 39365 ft 465 kts 268°
2026-05-06 06:03 55.18702 -0.84836 39143 ft 464 kts 268°
2026-05-06 06:03 55.18648 -0.90486 38913 ft 463 kts 268°
2026-05-06 06:04 55.18592 -0.96107 38328 ft 461 kts 268°
2026-05-06 06:04 55.18532 -1.01696 37648 ft 458 kts 268°
2026-05-06 06:04 55.18298 -1.07234 37105 ft 454 kts 263°
2026-05-06 06:04 55.17961 -1.12635 36514 ft 452 kts 263°
2026-05-06 06:05 55.17605 -1.18097 35839 ft 451 kts 263°
2026-05-06 06:05 55.17242 -1.23558 35114 ft 452 kts 262°
2026-05-06 06:05 55.16872 -1.29040 34346 ft 454 kts 262°
2026-05-06 06:05 55.16600 -1.33037 33695 ft 455 kts 262°
2026-05-06 06:06 55.16222 -1.38547 32821 ft 456 kts 262°
2026-05-06 06:06 55.15841 -1.44052 31976 ft 457 kts 262°
2026-05-06 06:06 55.15456 -1.49571 31089 ft 457 kts 262°
2026-05-06 06:06 55.15070 -1.55076 30456 ft 453 kts 262°
2026-05-06 06:07 55.14690 -1.60453 29846 ft 448 kts 262°
2026-05-06 06:07 55.14307 -1.65834 29227 ft 442 kts 262°
2026-05-06 06:07 55.13926 -1.71150 28636 ft 437 kts 262°
2026-05-06 06:07 55.13549 -1.76386 28044 ft 431 kts 262°
2026-05-06 06:08 55.13174 -1.81550 27485 ft 426 kts 262°
2026-05-06 06:08 55.12803 -1.86662 26910 ft 422 kts 262°
2026-05-06 06:08 55.12654 -1.91738 26378 ft 417 kts 272°
2026-05-06 06:08 55.13142 -1.96721 25824 ft 415 kts 285°
2026-05-06 06:09 55.14305 -2.01400 25250 ft 425 kts 296°
2026-05-06 06:09 55.15752 -2.05861 24665 ft 428 kts 298°
2026-05-06 06:09 55.17252 -2.10351 24070 ft 425 kts 298°
2026-05-06 06:09 55.18733 -2.14804 23447 ft 421 kts 298°
2026-05-06 06:10 55.20193 -2.19221 22845 ft 416 kts 298°
2026-05-06 06:10 55.21624 -2.23576 22211 ft 411 kts 298°
2026-05-06 06:10 55.23041 -2.27902 21600 ft 407 kts 298°
2026-05-06 06:10 55.24443 -2.32195 21061 ft 404 kts 298°
2026-05-06 06:11 55.25833 -2.36460 20476 ft 401 kts 298°
2026-05-06 06:11 55.27212 -2.40700 19937 ft 398 kts 298°
2026-05-06 06:11 55.28577 -2.44905 19386 ft 395 kts 298°
2026-05-06 06:11 55.29931 -2.49086 18850 ft 392 kts 298°
2026-05-06 06:12 55.31274 -2.53238 18302 ft 390 kts 298°
2026-05-06 06:12 55.32603 -2.57357 17725 ft 387 kts 298°
2026-05-06 06:12 55.33926 -2.61460 17184 ft 384 kts 298°
2026-05-06 06:12 55.35234 -2.65528 16671 ft 381 kts 298°
2026-05-06 06:13 55.36535 -2.69578 16146 ft 378 kts 298°
2026-05-06 06:13 55.37824 -2.73598 15637 ft 376 kts 298°
2026-05-06 06:13 55.39086 -2.77540 15115 ft 373 kts 298°
2026-05-06 06:13 55.40353 -2.81503 14630 ft 369 kts 298°
2026-05-06 06:14 55.41601 -2.85414 14120 ft 365 kts 298°
2026-05-06 06:14 55.42837 -2.89296 13687 ft 359 kts 298°
2026-05-06 06:14 55.44019 -2.93010 13389 ft 333 kts 298°
2026-05-06 06:14 55.45127 -2.96432 12957 ft 311 kts 301°
2026-05-06 06:15 55.46501 -2.99207 12544 ft 293 kts 321°
2026-05-06 06:15 55.48273 -3.00866 11955 ft 287 kts 339°
2026-05-06 06:15 55.50183 -3.01962 11474 ft 288 kts 341°
2026-05-06 06:15 55.52093 -3.02987 11067 ft 286 kts 342°
2026-05-06 06:16 55.53995 -3.04016 10679 ft 284 kts 342°
2026-05-06 06:16 55.55872 -3.05042 10283 ft 282 kts 342°
2026-05-06 06:16 55.57744 -3.06073 9896 ft 281 kts 342°
2026-05-06 06:16 55.59607 -3.07103 9493 ft 279 kts 342°
2026-05-06 06:17 55.61448 -3.08124 9092 ft 276 kts 342°
2026-05-06 06:17 55.63276 -3.09140 8710 ft 274 kts 342°
2026-05-06 06:17 55.65065 -3.10136 8348 ft 272 kts 342°
2026-05-06 06:17 55.66860 -3.11136 7967 ft 269 kts 342°
2026-05-06 06:18 55.68638 -3.12128 7596 ft 267 kts 342°
2026-05-06 06:18 55.70390 -3.13106 7369 ft 258 kts 342°
2026-05-06 06:18 55.72077 -3.14046 7151 ft 250 kts 342°
2026-05-06 06:18 55.73752 -3.14545 6948 ft 243 kts
2026-05-06 06:19 55.75384 -3.13871 6730 ft 240 kts 17°
2026-05-06 06:19 55.76952 -3.12854 6358 ft 240 kts 19°
2026-05-06 06:19 55.78508 -3.11805 5980 ft 238 kts 19°
2026-05-06 06:19 55.80001 -3.10542 5638 ft 237 kts 31°
2026-05-06 06:20 55.81363 -3.08964 5305 ft 235 kts 33°
2026-05-06 06:20 55.82729 -3.07324 4993 ft 233 kts 33°
2026-05-06 06:20 55.84055 -3.05747 4657 ft 231 kts 33°
2026-05-06 06:20 55.85403 -3.04168 4272 ft 231 kts 33°
2026-05-06 06:21 55.86786 -3.02698 3804 ft 234 kts 26°
2026-05-06 06:21 55.88399 -3.01921 3255 ft 248 kts
2026-05-06 06:21 55.90148 -3.02020 3012 ft 255 kts 356°
2026-05-06 06:21 55.91921 -3.02343 2986 ft 255 kts 355°
2026-05-06 06:22 55.93629 -3.02691 2981 ft 238 kts 355°
2026-05-06 06:22 55.95226 -3.03026 2981 ft 226 kts 355°
2026-05-06 06:22 55.96786 -3.03353 2989 ft 225 kts 355°
2026-05-06 06:22 55.98343 -3.03681 2992 ft 225 kts 355°
2026-05-06 06:23 55.99900 -3.04012 2990 ft 225 kts 355°
2026-05-06 06:23 56.01442 -3.04342 2983 ft 216 kts 355°
2026-05-06 06:23 56.02880 -3.04654 2976 ft 201 kts 355°
2026-05-06 06:23 56.04227 -3.04945 2980 ft 192 kts 356°
2026-05-06 06:24 56.05553 -3.05243 2984 ft 192 kts 354°
2026-05-06 06:24 56.06807 -3.06077 2985 ft 196 kts 326°
2026-05-06 06:24 56.07607 -3.08017 2990 ft 198 kts 288°
2026-05-06 06:24 56.07596 -3.10421 2978 ft 189 kts 249°
2026-05-06 06:25 56.06873 -3.12216 3005 ft 175 kts 216°
2026-05-06 06:25 56.05790 -3.13050 3005 ft 164 kts 185°
2026-05-06 06:25 56.03629 -3.13186 2987 ft 157 kts 189°
2026-05-06 06:26 56.02711 -3.14292 2989 ft 162 kts 230°
2026-05-06 06:26 56.02144 -3.15998 2816 ft 161 kts 242°
2026-05-06 06:26 56.01608 -3.17752 2557 ft 160 kts 238°
2026-05-06 06:26 56.01020 -3.19437 2330 ft 158 kts 237°
2026-05-06 06:27 56.00462 -3.21090 2100 ft 152 kts 237°
2026-05-06 06:27 55.99930 -3.22672 1883 ft 145 kts 237°
2026-05-06 06:27 55.99410 -3.24208 1700 ft 143 kts 237°
2026-05-06 06:27 55.98896 -3.25729 1488 ft 143 kts 237°
2026-05-06 06:28 55.98387 -3.27242 1282 ft 142 kts 238°
2026-05-06 06:28 55.97890 -3.28756 1091 ft 141 kts 238°
2026-05-06 06:28 55.97376 -3.30233 856 ft 139 kts 237°
2026-05-06 06:28 55.96881 -3.31691 683 ft 136 kts 240°
2026-05-06 06:29 55.96404 -3.33127 487 ft 135 kts 238°
2026-05-06 06:29 55.95904 -3.34551 298 ft 134 kts 239°
2026-05-06 06:29 55.95426 -3.35987 152 ft 135 kts 239°
2026-05-06 06:29 55.94974 -3.37323 114 ft 100 kts 239°
2026-05-06 06:30 55.94754 -3.37972 117 ft 22 kts 239°
2026-05-06 06:30 55.94693 -3.38044 119 ft 11 kts 168°
2026-05-06 06:30 55.94624 -3.37982 117 ft 8 kts 149°
2026-05-06 06:30 55.94613 -3.37969 119 ft 0 kts 146°
2026-05-06 06:33 55.94598 -3.37938 117 ft 7 kts 121°
2026-05-06 06:33 55.94614 -3.37817 118 ft 10 kts 60°
2026-05-06 06:33 55.94639 -3.37741 119 ft 12 kts 58°
2026-05-06 06:33 55.94687 -3.37603 117 ft 15 kts 58°
2026-05-06 06:34 55.94764 -3.37372 118 ft 18 kts 59°
2026-05-06 06:34 55.94834 -3.37166 118 ft 21 kts 59°
2026-05-06 06:34 55.94886 -3.37016 117 ft 18 kts 59°
2026-05-06 06:34 55.94922 -3.36906 118 ft 8 kts 66°
2026-05-06 06:35 55.94905 -3.36823 120 ft 8 kts 131°
2026-05-06 06:35 55.94900 -3.36815 117 ft 0 kts 133°
2026-05-06 06:35 55.94899 -3.36811 117 ft 3 kts 131°
2026-05-06 06:35 55.94893 -3.36777 117 ft 2 kts 117°
2026-05-06 06:36 55.94888 -3.36774 117 ft 0 kts 146°
2026-05-06 06:36 55.94881 -3.36775 119 ft 3 kts 178°
2026-05-06 06:36 55.94842 -3.36778 121 ft 1 kts 181°
2026-05-06 06:36 55.94826 -3.36778 122 ft 4 kts 180°
2026-05-06 06:37 55.94798 -3.36759 117 ft 3 kts 139°
2026-05-06 06:37 55.94786 -3.36717 120 ft 5 kts 109°
2026-05-06 06:37 55.94786 -3.36652 121 ft 4 kts 88°
2026-05-06 06:37 55.94786 -3.36642 121 ft 0 kts 88°
2026-05-06 06:38 55.94803 -3.36641 118 ft 0 kts 117°